Voltar ao catálogo

STARLINK-2139

AtivoComunicaçõesVLEO
NORAD 48554·PAYLOAD·🇺🇸 United States

Lançado May 15, 2021 de Cape Canaveral Space Force Station

Loading…

Próximas Passagens (próximas 24 horas)

TLE

AtualizadoSource: CelesTrak SupGP

Época: Sep 14, 2026, 20:31 UTC

1 48554C 21041B   26257.85534722 -.00029972  00000+0 -96375-3 0  2572
2 48554  53.1597 326.3744 0001213  79.4303 346.5731 15.31719338    11

Acompanhe STARLINK-2139 em tempo real com AllMySat

Download on the App Store